Find Starlink 37071

NORAD ID: 68190 Int'l Des: 2026-050 Owner: SPXS Country: US Constellation: starlink operational
LEOCIRCULAR

实时位置

正在加载3D地球...

关于 Starlink 37071

正在加载描述...

即将过境

Passes for default location (London). Set your location on the main map for personalized predictions.

高度历史

Loading altitude history...

两行轨道根数

1 68190U 26050Z 26121.13245326 .00049322 00000-0 11349-2 0 9995
2 68190 53.1609 23.7713 0001170 101.7399 258.3739 15.42178753 8707
Epoch: May 1, 2026 • Age: 6 hours

当前状态

高度 441.4 km
速度 7.65 km/s
星下点 32.84°N, 48.16°E
发射日期 Mar 14, 2026
运行时间 0.1 years
类型 internet

技术详情

分类 Payload
质量 575.00 kg
干质量 530.00 kg
总质量 575.00 kg
长度 0.30 m
直径 4.10 m
跨度 29.00 m
形状 Box + pan
制造商 SPXS
平台类型 Starlink V2MO
阶段状态 In Orbit
所有者/国家 SPXS/US

Most Searched